Time,TemperatureF,DewpointF,PressureIn,WindDirection,WindDirectionDegrees,WindSpeedMPH,WindSpeedGustMPH,Humidity,HourlyPrecipIn,Conditions,Clouds,dailyrainin,SoftwareType,DateUTC
2013-06-11 00:01:00,80.3,72.4,29.97,South,169,0.0,5.0,77,0.00,,CLR,0.00,VWS V14.01,2013-06-11 05:01:00,
2013-06-11 00:06:00,80.3,72.4,29.98,SSE,163,0.0,2.0,77,0.00,,CLR,0.00,VWS V14.01,2013-06-11 05:06:00,
2013-06-11 00:11:00,80.1,72.6,29.98,SSE,148,0.0,2.0,78,0.00,,CLR,0.00,VWS V14.01,2013-06-11 05:11:00,
2013-06-11 00:16:00,80.1,72.6,29.98,ESE,117,0.0,0.0,78,0.00,,CLR,0.00,VWS V14.01,2013-06-11 05:16:00,
2013-06-11 00:21:00,79.9,72.4,29.98,East,100,0.0,4.0,78,0.00,,CLR,0.00,VWS V14.01,2013-06-11 05:21:00,
2013-06-11 00:26:00,79.8,72.7,29.98,SE,133,0.0,7.0,79,0.00,,CLR,0.00,VWS V14.01,2013-06-11 05:26:00,
2013-06-11 00:31:00,79.8,72.7,29.98,SSE,159,1.0,7.0,79,0.00,,CLR,0.00,VWS V14.01,2013-06-11 05:31:00,
2013-06-11 00:36:00,79.6,72.5,29.98,SSE,161,0.0,4.0,79,0.00,,CLR,0.00,VWS V14.01,2013-06-11 05:36:00,
2013-06-11 00:41:00,79.4,72.7,29.98,SE,138,0.0,4.0,80,0.00,,CLR,0.00,VWS V14.01,2013-06-11 05:41:00,
2013-06-11 00:46:00,79.2,72.5,29.98,SSE,150,0.0,0.0,80,0.00,,CLR,0.00,VWS V14.01,2013-06-11 05:46:00,
2013-06-11 00:52:00,79.2,72.5,29.98,ESE,123,0.0,0.0,80,0.00,,CLR,0.00,VWS V14.01,2013-06-11 05:52:00,
2013-06-11 00:57:00,79.0,72.7,29.98,ESE,105,0.0,0.0,81,0.00,,,0.00,VWS V14.01,2013-06-11 05:57:00,
2013-06-11 01:02:00,78.8,72.5,29.98,ESE,113,0.0,2.0,81,0.00,,,0.00,VWS V14.01,2013-06-11 06:02:00,
2013-06-11 01:07:00,78.6,72.7,29.98,SE,127,0.0,0.0,82,0.00,,,0.00,VWS V14.01,2013-06-11 06:07:00,
2013-06-11 01:12:00,78.6,72.7,29.98,SE,133,0.0,0.0,82,0.00,,,0.00,VWS V14.01,2013-06-11 06:12:00,
2013-06-11 01:17:00,78.5,72.9,29.98,SE,136,0.0,0.0,83,0.00,,,0.00,VWS V14.01,2013-06-11 06:17:00,
2013-06-11 01:22:00,78.3,72.7,29.98,SE,133,0.0,0.0,83,0.00,,,0.00,VWS V14.01,2013-06-11 06:22:00,
2013-06-11 01:27:00,78.1,72.5,29.98,SE,128,0.0,0.0,83,0.00,,,0.00,VWS V14.01,2013-06-11 06:27:00,
2013-06-11 01:32:00,78.1,72.5,29.98,SE,134,0.0,0.0,83,0.00,,,0.00,VWS V14.01,2013-06-11 06:32:00,
2013-06-11 01:37:00,77.9,72.7,29.98,SE,134,0.0,0.0,84,0.00,,,0.00,VWS V14.01,2013-06-11 06:37:00,
2013-06-11 01:42:00,77.9,72.7,29.98,SE,134,0.0,0.0,84,0.00,,,0.00,VWS V14.01,2013-06-11 06:42:00,
2013-06-11 01:47:00,77.7,72.5,29.98,SE,134,0.0,0.0,84,0.00,,,0.00,VWS V14.01,2013-06-11 06:47:00,
2013-06-11 01:52:00,77.7,72.8,29.98,SE,134,0.0,0.0,85,0.00,,,0.00,VWS V14.01,2013-06-11 06:52:00,
2013-06-11 01:57:00,77.6,72.7,29.98,SE,134,0.0,0.0,85,0.00,,CLR,0.00,VWS V14.01,2013-06-11 06:57:00,
2013-06-11 02:02:00,77.6,72.7,29.98,SE,134,0.0,0.0,85,0.00,,CLR,0.00,VWS V14.01,2013-06-11 07:02:00,
2013-06-11 02:07:00,77.4,72.5,29.98,SE,134,0.0,0.0,85,0.00,,CLR,0.00,VWS V14.01,2013-06-11 07:07:00,
2013-06-11 02:12:00,77.4,72.5,29.98,SE,134,0.0,0.0,85,0.00,,CLR,0.00,VWS V14.01,2013-06-11 07:12:00,
2013-06-11 02:17:00,77.4,72.9,29.98,SE,134,0.0,0.0,86,0.00,,CLR,0.00,VWS V14.01,2013-06-11 07:17:00,
2013-06-11 02:22:00,77.2,72.7,29.99,SE,134,0.0,0.0,86,0.00,,CLR,0.00,VWS V14.01,2013-06-11 07:22:00,
2013-06-11 02:27:00,77.0,72.5,29.99,SE,134,0.0,0.0,86,0.00,,CLR,0.00,VWS V14.01,2013-06-11 07:27:00,
2013-06-11 02:32:00,77.0,72.8,29.99,SE,134,0.0,0.0,87,0.00,,CLR,0.00,VWS V14.01,2013-06-11 07:32:00,
2013-06-11 02:37:00,76.8,72.6,29.99,SE,132,0.0,0.0,87,0.00,,CLR,0.00,VWS V14.01,2013-06-11 07:37:00,
2013-06-11 02:42:00,76.8,72.6,29.99,SE,132,0.0,0.0,87,0.00,,CLR,0.00,VWS V14.01,2013-06-11 07:42:00,
2013-06-11 02:47:00,76.8,72.6,29.99,ESE,122,0.0,0.0,87,0.00,,CLR,0.00,VWS V14.01,2013-06-11 07:47:00,
2013-06-11 02:52:00,76.7,72.9,29.99,ESE,122,0.0,0.0,88,0.00,,CLR,0.00,VWS V14.01,2013-06-11 07:52:00,
2013-06-11 02:57:00,76.7,72.9,29.99,SE,138,0.0,0.0,88,0.00,,SCT011,0.00,VWS V14.01,2013-06-11 07:57:00,
2013-06-11 03:02:00,76.7,72.9,29.99,SE,138,0.0,0.0,88,0.00,,SCT011,0.00,VWS V14.01,2013-06-11 08:02:00,
2013-06-11 03:07:00,76.5,72.7,29.98,SE,139,0.0,0.0,88,0.00,,BKN020,0.00,VWS V14.01,2013-06-11 08:07:00,
2013-06-11 03:12:00,76.5,72.7,29.98,SE,139,0.0,0.0,88,0.00,,BKN020,0.00,VWS V14.01,2013-06-11 08:12:00,
2013-06-11 03:17:00,76.5,72.7,29.98,SE,139,0.0,0.0,88,0.00,,BKN020,0.00,VWS V14.01,2013-06-11 08:17:00,
2013-06-11 03:22:00,76.5,72.7,29.98,SE,139,0.0,0.0,88,0.00,,BKN020,0.00,VWS V14.01,2013-06-11 08:22:00,
2013-06-11 03:27:00,76.3,72.5,29.98,SE,138,0.0,0.0,88,0.00,,BKN020,0.00,VWS V14.01,2013-06-11 08:27:00,
2013-06-11 03:32:00,76.3,72.8,29.98,SE,134,0.0,0.0,89,0.00,,OVC022,0.00,VWS V14.01,2013-06-11 08:32:00,
2013-06-11 03:37:00,76.1,72.6,29.98,SE,134,0.0,0.0,89,0.00,,OVC022,0.00,VWS V14.01,2013-06-11 08:37:00,
2013-06-11 03:42:00,76.1,72.6,29.98,SE,134,0.0,0.0,89,0.00,,OVC022,0.00,VWS V14.01,2013-06-11 08:42:00,
2013-06-11 03:47:00,76.1,72.6,29.98,SE,134,0.0,0.0,89,0.00,,OVC022,0.00,VWS V14.01,2013-06-11 08:47:00,
2013-06-11 03:52:00,76.0,72.5,29.98,SE,134,0.0,0.0,89,0.00,,OVC022,0.00,VWS V14.01,2013-06-11 08:52:00,
2013-06-11 03:57:00,76.0,72.5,29.98,SE,134,0.0,0.0,89,0.00,,OVC024,0.00,VWS V14.01,2013-06-11 08:57:00,
2013-06-11 04:02:00,75.8,72.7,29.98,SE,134,0.0,0.0,90,0.00,,OVC026,0.00,VWS V14.01,2013-06-11 09:02:00,
2013-06-11 04:07:00,75.8,72.7,29.98,SE,134,0.0,0.0,90,0.00,,OVC026,0.00,VWS V14.01,2013-06-11 09:07:00,
2013-06-11 04:12:00,75.8,72.7,29.98,SE,134,0.0,0.0,90,0.00,,OVC027,0.00,VWS V14.01,2013-06-11 09:12:00,
2013-06-11 04:17:00,75.8,72.7,29.98,SE,134,0.0,0.0,90,0.00,,OVC027,0.00,VWS V14.01,2013-06-11 09:17:00,
2013-06-11 04:22:00,75.6,72.5,29.98,SE,134,0.0,0.0,90,0.00,,OVC027,0.00,VWS V14.01,2013-06-11 09:22:00,
2013-06-11 04:27:00,75.6,72.5,29.98,SE,134,0.0,0.0,90,0.00,,OVC029,0.00,VWS V14.01,2013-06-11 09:27:00,
2013-06-11 04:32:00,75.4,72.3,29.98,SE,134,0.0,0.0,90,0.00,,OVC029,0.00,VWS V14.01,2013-06-11 09:32:00,
2013-06-11 04:37:00,75.4,72.6,29.98,SE,134,0.0,0.0,91,0.00,,OVC028,0.00,VWS V14.01,2013-06-11 09:37:00,
2013-06-11 04:42:00,75.4,72.6,29.98,SE,134,0.0,0.0,91,0.00,,OVC028,0.00,VWS V14.01,2013-06-11 09:42:00,
2013-06-11 04:47:00,75.4,72.6,29.98,SE,134,0.0,0.0,91,0.00,,OVC028,0.00,VWS V14.01,2013-06-11 09:47:00,
2013-06-11 04:52:00,75.3,72.5,29.99,SE,134,0.0,0.0,91,0.00,,OVC028,0.00,VWS V14.01,2013-06-11 09:52:00,
2013-06-11 04:57:00,75.3,72.5,29.99,SE,134,0.0,0.0,91,0.00,,SCT019,0.00,VWS V14.01,2013-06-11 09:57:00,
2013-06-11 05:02:00,75.3,72.5,29.99,SE,134,0.0,0.0,91,0.00,,SCT019,0.00,VWS V14.01,2013-06-11 10:02:00,
2013-06-11 05:07:00,75.3,72.5,29.99,SE,134,0.0,0.0,91,0.00,,SCT019,0.00,VWS V14.01,2013-06-11 10:07:00,
2013-06-11 05:12:00,75.3,72.5,29.99,SE,134,0.0,0.0,91,0.00,,SCT019,0.00,VWS V14.01,2013-06-11 10:12:00,
2013-06-11 05:17:00,75.3,72.5,29.99,SE,134,0.0,0.0,91,0.00,,SCT019,0.00,VWS V14.01,2013-06-11 10:17:00,
2013-06-11 05:22:00,75.3,72.5,29.99,SE,134,0.0,0.0,91,0.00,,BKN019,0.00,VWS V14.01,2013-06-11 10:22:00,
2013-06-11 05:27:00,75.3,72.8,29.99,SE,134,0.0,0.0,92,0.00,,BKN019,0.00,VWS V14.01,2013-06-11 10:27:00,
2013-06-11 05:32:00,75.3,72.8,29.99,SE,133,0.0,0.0,92,0.00,,BKN019,0.00,VWS V14.01,2013-06-11 10:32:00,
2013-06-11 05:37:00,75.3,72.8,29.99,SE,134,0.0,0.0,92,0.00,,OVC025,0.00,VWS V14.01,2013-06-11 10:37:00,
2013-06-11 05:42:00,75.1,72.6,29.99,SE,133,0.0,0.0,92,0.00,,BKN018,0.00,VWS V14.01,2013-06-11 10:42:00,
2013-06-11 05:47:00,75.1,72.6,29.99,SE,133,0.0,0.0,92,0.00,,BKN018,0.00,VWS V14.01,2013-06-11 10:47:00,
2013-06-11 05:52:00,75.3,72.8,29.99,SE,133,0.0,0.0,92,0.00,,BKN018,0.00,VWS V14.01,2013-06-11 10:52:00,
2013-06-11 05:57:00,75.3,72.8,29.99,SE,133,0.0,0.0,92,0.00,,BKN025,0.00,VWS V14.01,2013-06-11 10:57:00,
2013-06-11 06:02:00,75.3,72.8,29.99,SE,134,0.0,0.0,92,0.00,,BKN025,0.00,VWS V14.01,2013-06-11 11:02:00,
2013-06-11 06:07:00,75.3,72.8,30.00,SE,134,0.0,0.0,92,0.00,,BKN025,0.00,VWS V14.01,2013-06-11 11:07:00,
2013-06-11 06:12:00,75.3,72.8,30.00,SE,133,0.0,0.0,92,0.00,,BKN025,0.00,VWS V14.01,2013-06-11 11:12:00,
2013-06-11 06:17:00,75.1,72.6,30.00,SE,133,0.0,0.0,92,0.00,,BKN025,0.00,VWS V14.01,2013-06-11 11:17:00,
2013-06-11 06:22:00,75.1,72.6,30.00,SE,133,0.0,0.0,92,0.00,,SCT028,0.00,VWS V14.01,2013-06-11 11:22:00,
2013-06-11 06:27:00,75.1,72.6,30.00,SE,133,0.0,0.0,92,0.00,,SCT028,0.00,VWS V14.01,2013-06-11 11:27:00,
2013-06-11 06:32:00,75.1,72.6,30.00,SE,133,0.0,0.0,92,0.00,,SCT028,0.00,VWS V14.01,2013-06-11 11:32:00,
2013-06-11 06:37:00,75.1,72.6,30.01,SE,133,0.0,0.0,92,0.00,,SCT028,0.00,VWS V14.01,2013-06-11 11:37:00,
2013-06-11 06:42:00,75.1,72.6,30.01,SE,133,0.0,0.0,92,0.00,,SCT028,0.00,VWS V14.01,2013-06-11 11:42:00,
2013-06-11 06:47:00,75.1,72.6,30.01,SE,134,0.0,0.0,92,0.00,,SCT028,0.00,VWS V14.01,2013-06-11 11:47:00,
2013-06-11 06:52:00,74.9,72.4,30.01,SE,133,0.0,0.0,92,0.00,,SCT028,0.00,VWS V14.01,2013-06-11 11:52:00,
2013-06-11 06:57:00,75.1,72.6,30.01,SE,134,0.0,0.0,92,0.00,,,0.00,VWS V14.01,2013-06-11 11:57:00,
2013-06-11 07:02:00,75.1,72.6,30.01,SE,133,0.0,0.0,92,0.00,,,0.00,VWS V14.01,2013-06-11 12:02:00,
2013-06-11 07:07:00,75.1,72.6,30.01,SE,134,0.0,0.0,92,0.00,,,0.00,VWS V14.01,2013-06-11 12:07:00,
2013-06-11 07:12:00,75.1,72.6,30.01,SE,133,0.0,0.0,92,0.00,,,0.00,VWS V14.01,2013-06-11 12:12:00,
2013-06-11 07:17:00,75.1,72.6,30.01,SE,134,0.0,0.0,92,0.00,,,0.00,VWS V14.01,2013-06-11 12:17:00,
2013-06-11 07:22:00,75.3,72.8,30.01,SE,133,0.0,0.0,92,0.00,,,0.00,VWS V14.01,2013-06-11 12:22:00,
2013-06-11 07:27:00,75.4,72.9,30.01,SE,133,0.0,0.0,92,0.00,,,0.00,VWS V14.01,2013-06-11 12:27:00,
2013-06-11 07:32:00,75.4,72.9,30.01,SE,133,0.0,0.0,92,0.00,,,0.00,VWS V14.01,2013-06-11 12:32:00,
2013-06-11 07:37:00,75.6,73.1,30.01,SE,133,0.0,0.0,92,0.00,,,0.00,VWS V14.01,2013-06-11 12:37:00,
2013-06-11 07:42:00,75.6,73.1,30.01,SE,134,0.0,0.0,92,0.00,,,0.00,VWS V14.01,2013-06-11 12:42:00,
2013-06-11 07:47:00,75.8,73.3,30.01,SE,133,0.0,0.0,92,0.00,,,0.00,VWS V14.01,2013-06-11 12:47:00,
2013-06-11 07:52:00,76.1,73.6,30.02,SE,134,0.0,0.0,92,0.00,,,0.00,VWS V14.01,2013-06-11 12:52:00,
2013-06-11 07:57:00,76.5,73.7,30.02,SE,134,0.0,0.0,91,0.00,,,0.00,VWS V14.01,2013-06-11 12:57:00,
2013-06-11 08:02:00,76.5,73.3,30.02,SSE,163,0.0,3.0,90,0.00,,,0.00,VWS V14.01,2013-06-11 13:02:00,
2013-06-11 08:07:00,76.7,73.2,30.03,SSE,163,0.0,0.0,89,0.00,,SCT006,0.00,VWS V14.01,2013-06-11 13:07:00,
2013-06-11 08:12:00,76.7,73.2,30.03,ESE,103,0.0,3.0,89,0.00,,SCT006,0.00,VWS V14.01,2013-06-11 13:12:00,
2013-06-11 08:17:00,77.0,73.5,30.03,East,101,0.0,0.0,89,0.00,,SCT006,0.00,VWS V14.01,2013-06-11 13:17:00,
2013-06-11 08:22:00,77.2,73.4,30.03,SSE,159,0.0,0.0,88,0.00,,SCT006,0.00,VWS V14.01,2013-06-11 13:22:00,
2013-06-11 08:27:00,77.2,73.4,30.03,East,98,0.0,0.0,88,0.00,,SCT006,0.00,VWS V14.01,2013-06-11 13:27:00,
2013-06-11 08:32:00,77.6,73.8,30.03,SE,128,0.0,0.0,88,0.00,,SCT006,0.00,VWS V14.01,2013-06-11 13:32:00,
2013-06-11 08:37:00,77.4,73.2,30.03,SE,132,0.0,0.0,87,0.00,,SCT006,0.00,VWS V14.01,2013-06-11 13:37:00,
2013-06-11 08:42:00,77.7,73.5,30.03,SSE,165,0.0,0.0,87,0.00,,SCT006,0.00,VWS V14.01,2013-06-11 13:42:00,
2013-06-11 08:47:00,78.3,73.8,30.03,SSE,165,0.0,0.0,86,0.00,,SCT006,0.00,VWS V14.01,2013-06-11 13:47:00,
2013-06-11 08:52:00,78.5,73.3,30.03,SSE,165,0.0,0.0,84,0.00,,SCT006,0.00,VWS V14.01,2013-06-11 13:52:00,
2013-06-11 08:57:00,79.0,73.4,30.03,SSE,166,0.0,0.0,83,0.00,,SCT032,0.00,VWS V14.01,2013-06-11 13:57:00,
2013-06-11 09:02:00,79.2,72.9,30.03,South,186,0.0,4.0,81,0.00,,SCT032,0.00,VWS V14.01,2013-06-11 14:02:00,
2013-06-11 09:07:00,79.2,72.5,30.04,South,186,0.0,0.0,80,0.00,,SCT032,0.00,VWS V14.01,2013-06-11 14:07:00,
2013-06-11 09:12:00,79.2,72.5,30.04,ESE,103,0.0,0.0,80,0.00,,SCT032,0.00,VWS V14.01,2013-06-11 14:12:00,
2013-06-11 09:17:00,79.4,72.3,30.04,SSE,150,0.0,0.0,79,0.00,,SCT032,0.00,VWS V14.01,2013-06-11 14:17:00,
2013-06-11 09:22:00,79.6,72.1,30.04,SSE,161,0.0,0.0,78,0.00,,SCT032,0.00,VWS V14.01,2013-06-11 14:22:00,
2013-06-11 09:27:00,79.8,72.3,30.04,SSE,157,0.0,3.0,78,0.00,,SCT032,0.00,VWS V14.01,2013-06-11 14:27:00,
2013-06-11 09:32:00,80.1,72.2,30.04,SSE,147,4.0,5.0,77,0.00,,SCT032,0.00,VWS V14.01,2013-06-11 14:32:00,
2013-06-11 09:37:00,80.3,72.1,30.04,ESE,119,0.0,1.0,76,0.00,,SCT032,0.00,VWS V14.01,2013-06-11 14:37:00,
2013-06-11 09:42:00,80.7,72.4,30.04,SE,138,0.0,4.0,76,0.00,,SCT032,0.00,VWS V14.01,2013-06-11 14:42:00,
2013-06-11 09:47:00,81.1,72.0,30.04,SSE,151,0.0,0.0,74,0.00,,SCT032,0.00,VWS V14.01,2013-06-11 14:47:00,
2013-06-11 09:52:00,82.0,72.5,30.04,SSE,161,0.0,6.0,73,0.00,,SCT032,0.00,VWS V14.01,2013-06-11 14:52:00,
2013-06-11 09:57:00,82.6,71.8,30.04,SE,124,0.0,0.0,70,0.00,,SCT028,0.00,VWS V14.01,2013-06-11 14:57:00,
2013-06-11 10:02:00,83.0,71.8,30.04,SSE,162,3.0,5.0,69,0.00,,SCT028,0.00,VWS V14.01,2013-06-11 15:02:00,
2013-06-11 10:07:00,82.8,71.6,30.04,South,171,0.0,0.0,69,0.00,,SCT028,0.00,VWS V14.01,2013-06-11 15:07:00,
2013-06-11 10:12:00,83.2,71.6,30.04,East,80,3.0,7.0,68,0.00,,SCT028,0.00,VWS V14.01,2013-06-11 15:12:00,
2013-06-11 10:17:00,83.6,71.5,30.04,SSE,165,0.0,3.0,67,0.00,,SCT028,0.00,VWS V14.01,2013-06-11 15:17:00,
2013-06-11 10:22:00,83.6,70.6,30.04,East,100,1.0,7.0,65,0.00,,SCT028,0.00,VWS V14.01,2013-06-11 15:22:00,
2013-06-11 10:27:00,83.8,71.2,30.04,SE,139,0.0,6.0,66,0.00,,SCT028,0.00,VWS V14.01,2013-06-11 15:27:00,
2013-06-11 10:32:00,84.3,71.3,30.04,SSE,148,3.0,10.0,65,0.00,,SCT028,0.00,VWS V14.01,2013-06-11 15:32:00,
2013-06-11 10:37:00,84.5,71.0,30.04,SE,132,0.0,6.0,64,0.00,,SCT028,0.00,VWS V14.01,2013-06-11 15:37:00,
2013-06-11 10:42:00,84.7,70.7,30.04,SE,144,0.0,7.0,63,0.00,,SCT028,0.00,VWS V14.01,2013-06-11 15:42:00,
2013-06-11 10:47:00,84.0,70.5,30.04,South,173,0.0,6.0,64,0.00,,SCT028,0.00,VWS V14.01,2013-06-11 15:47:00,
2013-06-11 10:52:00,83.8,70.8,30.05,SSE,161,0.0,6.0,65,0.00,,SCT028,0.00,VWS V14.01,2013-06-11 15:52:00,
2013-06-11 10:57:00,83.6,71.1,30.05,SE,126,0.0,0.0,66,0.00,,SCT038,0.00,VWS V14.01,2013-06-11 15:57:00,
2013-06-11 11:02:00,83.8,70.8,30.05,SE,124,0.0,0.0,65,0.00,,SCT038,0.00,VWS V14.01,2013-06-11 16:02:00,
2013-06-11 11:07:00,84.0,71.4,30.06,East,90,1.0,1.0,66,0.00,,SCT038,0.00,VWS V14.01,2013-06-11 16:07:00,
2013-06-11 11:12:00,84.0,71.0,30.06,ESE,111,0.0,4.0,65,0.00,,SCT038,0.00,VWS V14.01,2013-06-11 16:12:00,
2013-06-11 11:17:00,84.5,71.0,30.06,South,181,0.0,0.0,64,0.00,,SCT038,0.00,VWS V14.01,2013-06-11 16:17:00,
2013-06-11 11:22:00,85.3,70.3,30.06,SE,136,0.0,5.0,61,0.00,,SCT038,0.00,VWS V14.01,2013-06-11 16:22:00,
2013-06-11 11:27:00,85.9,70.9,30.06,SSE,148,0.0,0.0,61,0.00,,SCT038,0.00,VWS V14.01,2013-06-11 16:27:00,
2013-06-11 11:32:00,86.5,71.0,30.06,East,99,0.0,5.0,60,0.00,,SCT038,0.00,VWS V14.01,2013-06-11 16:32:00,
2013-06-11 11:37:00,87.0,70.9,30.06,South,189,3.0,3.0,59,0.00,,SCT038,0.00,VWS V14.01,2013-06-11 16:37:00,
2013-06-11 11:42:00,86.5,71.0,30.06,South,174,0.0,4.0,60,0.00,,SCT038,0.00,VWS V14.01,2013-06-11 16:42:00,
2013-06-11 11:47:00,87.0,70.9,30.06,SSE,161,1.0,3.0,59,0.00,,SCT038,0.00,VWS V14.01,2013-06-11 16:47:00,
2013-06-11 11:52:00,87.2,70.1,30.06,ESE,114,6.0,7.0,57,0.00,,SCT038,0.00,VWS V14.01,2013-06-11 16:52:00,
2013-06-11 11:57:00,87.0,70.4,30.06,SE,142,4.0,9.0,58,0.00,,BKN050,0.00,VWS V14.01,2013-06-11 16:57:00,
2013-06-11 12:02:00,86.7,69.7,30.06,ESE,109,0.0,11.0,57,0.00,,BKN050,0.00,VWS V14.01,2013-06-11 17:02:00,
2013-06-11 12:07:00,87.6,70.5,30.06,South,181,7.0,7.0,57,0.00,,BKN050,0.00,VWS V14.01,2013-06-11 17:07:00,
2013-06-11 12:12:00,87.8,70.7,30.06,ESE,111,2.0,9.0,57,0.00,,BKN050,0.00,VWS V14.01,2013-06-11 17:12:00,
2013-06-11 12:17:00,88.0,70.9,30.06,SE,140,0.0,5.0,57,0.00,,BKN050,0.00,VWS V14.01,2013-06-11 17:17:00,
2013-06-11 12:22:00,87.8,69.6,30.05,South,171,3.0,12.0,55,0.00,,BKN050,0.00,VWS V14.01,2013-06-11 17:22:00,
2013-06-11 12:27:00,88.4,69.7,30.05,SSW,203,0.0,5.0,54,0.00,,BKN050,0.00,VWS V14.01,2013-06-11 17:27:00,
2013-06-11 12:32:00,88.6,69.8,30.05,SSE,165,0.0,9.0,54,0.00,,BKN050,0.00,VWS V14.01,2013-06-11 17:32:00,
2013-06-11 12:37:00,89.0,69.7,30.05,SSE,165,1.0,2.0,53,0.00,,BKN050,0.00,VWS V14.01,2013-06-11 17:37:00,
2013-06-11 12:42:00,88.6,69.3,30.05,South,173,7.0,7.0,53,0.00,,BKN050,0.00,VWS V14.01,2013-06-11 17:42:00,
2013-06-11 12:47:00,88.8,69.5,30.05,South,191,0.0,6.0,53,0.00,,BKN050,0.00,VWS V14.01,2013-06-11 17:47:00,
2013-06-11 12:52:00,89.9,69.9,30.05,SE,142,10.0,11.0,52,0.00,,BKN050,0.00,VWS V14.01,2013-06-11 17:52:00,
2013-06-11 12:57:00,89.3,69.9,30.05,South,189,0.0,8.0,53,0.00,,SCT050,0.00,VWS V14.01,2013-06-11 17:57:00,
2013-06-11 13:02:00,88.8,69.5,30.05,SSE,147,0.0,10.0,53,0.00,,SCT050,0.00,VWS V14.01,2013-06-11 18:02:00,
2013-06-11 13:07:00,89.3,68.8,30.04,SE,142,0.0,10.0,51,0.00,,SCT050,0.00,VWS V14.01,2013-06-11 18:07:00,
2013-06-11 13:12:00,89.3,69.4,30.04,South,188,4.0,10.0,52,0.00,,SCT050,0.00,VWS V14.01,2013-06-11 18:12:00,
2013-06-11 13:17:00,89.9,69.4,30.04,SW,218,1.0,4.0,51,0.00,,SCT050,0.00,VWS V14.01,2013-06-11 18:17:00,
2013-06-11 13:22:00,90.5,68.8,30.04,South,180,2.0,9.0,49,0.00,,SCT050,0.00,VWS V14.01,2013-06-11 18:22:00,
2013-06-11 13:27:00,90.1,69.0,30.04,SSE,159,2.0,7.0,50,0.00,,SCT050,0.00,VWS V14.01,2013-06-11 18:27:00,
2013-06-11 13:32:00,90.5,68.2,30.04,SSE,157,0.0,7.0,48,0.00,,SCT050,0.00,VWS V14.01,2013-06-11 18:32:00,
2013-06-11 13:37:00,91.4,69.0,30.03,SE,124,6.0,7.0,48,0.00,,SCT050,0.00,VWS V14.01,2013-06-11 18:37:00,
2013-06-11 13:42:00,91.6,69.2,30.03,SE,124,0.0,7.0,48,0.00,,SCT050,0.00,VWS V14.01,2013-06-11 18:42:00,
2013-06-11 13:47:00,91.0,68.6,30.03,SSW,198,0.0,7.0,48,0.00,,SCT050,0.00,VWS V14.01,2013-06-11 18:47:00,
2013-06-11 13:52:00,90.7,68.9,30.03,ESE,103,3.0,7.0,49,0.00,,SCT050,0.00,VWS V14.01,2013-06-11 18:52:00,
2013-06-11 13:57:00,91.2,68.8,30.03,SSE,148,3.0,4.0,48,0.00,,FEW045,0.00,VWS V14.01,2013-06-11 18:57:00,
2013-06-11 14:02:00,91.0,68.6,30.03,SSE,152,0.0,6.0,48,0.00,,FEW045,0.00,VWS V14.01,2013-06-11 19:02:00,
2013-06-11 14:07:00,91.8,69.3,30.02,SE,126,0.0,0.0,48,0.00,,FEW045,0.00,VWS V14.01,2013-06-11 19:07:00,
2013-06-11 14:12:00,92.3,69.2,30.02,South,173,0.0,5.0,47,0.00,,FEW045,0.00,VWS V14.01,2013-06-11 19:12:00,
2013-06-11 14:17:00,92.5,69.3,30.02,South,186,0.0,0.0,47,0.00,,FEW045,0.00,VWS V14.01,2013-06-11 19:17:00,
2013-06-11 14:22:00,93.2,69.4,30.01,South,190,0.0,3.0,46,0.00,,FEW045,0.00,VWS V14.01,2013-06-11 19:22:00,
2013-06-11 14:27:00,92.9,69.1,30.01,SSE,158,0.0,4.0,46,0.00,,FEW045,0.00,VWS V14.01,2013-06-11 19:27:00,
2013-06-11 14:32:00,92.9,68.4,30.01,SSE,153,4.0,5.0,45,0.00,,FEW045,0.00,VWS V14.01,2013-06-11 19:32:00,
2013-06-11 14:37:00,93.2,68.1,30.01,South,177,7.0,7.0,44,0.00,,FEW045,0.00,VWS V14.01,2013-06-11 19:37:00,
2013-06-11 14:42:00,92.7,68.3,30.01,East,94,8.0,8.0,45,0.00,,FEW045,0.00,VWS V14.01,2013-06-11 19:42:00,
2013-06-11 14:47:00,92.5,67.4,30.01,East,92,2.0,10.0,44,0.00,,FEW045,0.00,VWS V14.01,2013-06-11 19:47:00,
2013-06-11 14:52:00,93.2,68.1,30.00,SSE,148,0.0,10.0,44,0.00,,FEW045,0.00,VWS V14.01,2013-06-11 19:52:00,
2013-06-11 14:57:00,93.4,68.2,30.00,SSE,148,2.0,11.0,44,0.00,,FEW048,0.00,VWS V14.01,2013-06-11 19:57:00,
2013-06-11 15:02:00,93.8,67.9,30.00,SSE,163,5.0,11.0,43,0.00,,FEW048,0.00,VWS V14.01,2013-06-11 20:02:00,
2013-06-11 15:07:00,93.4,68.2,30.00,ESE,123,1.0,6.0,44,0.00,,FEW048,0.00,VWS V14.01,2013-06-11 20:07:00,
2013-06-11 15:12:00,93.2,67.4,30.00,SSE,156,0.0,13.0,43,0.00,,FEW048,0.00,VWS V14.01,2013-06-11 20:12:00,
2013-06-11 15:17:00,92.9,67.8,30.00,South,189,0.0,1.0,44,0.00,,FEW048,0.00,VWS V14.01,2013-06-11 20:17:00,
2013-06-11 15:22:00,94.0,67.4,30.00,SSE,163,0.0,10.0,42,0.00,,FEW048,0.00,VWS V14.01,2013-06-11 20:22:00,
2013-06-11 15:27:00,94.0,68.1,30.00,ESE,111,4.0,7.0,43,0.00,,FEW048,0.00,VWS V14.01,2013-06-11 20:27:00,
2013-06-11 15:32:00,91.6,69.8,30.00,ESE,107,3.0,19.0,49,0.00,,FEW048,0.00,VWS V14.01,2013-06-11 20:32:00,
2013-06-11 15:37:00,89.0,71.3,30.01,East,84,11.0,16.0,56,0.00,,FEW048,0.00,VWS V14.01,2013-06-11 20:37:00,
2013-06-11 15:42:00,87.8,71.2,30.01,SE,133,7.0,16.0,58,0.00,,FEW048,0.00,VWS V14.01,2013-06-11 20:42:00,
2013-06-11 15:47:00,84.7,73.0,30.01,ESE,102,13.0,21.0,68,0.00,,FEW048,0.00,VWS V14.01,2013-06-11 20:47:00,
2013-06-11 15:52:00,82.2,73.5,30.02,SE,141,6.0,21.0,75,0.00,,FEW048,0.00,VWS V14.01,2013-06-11 20:52:00,
2013-06-11 15:57:00,80.3,70.1,30.02,South,190,6.0,28.0,71,0.00,,SCT060,0.00,VWS V14.01,2013-06-11 20:57:00,
2013-06-11 16:02:00,78.8,69.0,30.02,South,188,10.0,28.0,72,0.00,,SCT060,0.00,VWS V14.01,2013-06-11 21:02:00,
2013-06-11 16:07:00,77.6,68.7,30.05,South,180,14.0,20.0,74,0.00,,SCT060,0.00,VWS V14.01,2013-06-11 21:07:00,
2013-06-11 16:12:00,77.2,68.3,30.05,SSW,207,12.0,20.0,74,0.00,,SCT060,0.00,VWS V14.01,2013-06-11 21:12:00,
2013-06-11 16:17:00,77.2,67.5,30.05,SSW,200,4.0,10.0,72,0.00,,SCT060,0.00,VWS V14.01,2013-06-11 21:17:00,
2013-06-11 16:22:00,76.8,67.1,30.05,SSW,194,4.0,13.0,72,0.00,,SCT060,0.00,VWS V14.01,2013-06-11 21:22:00,
2013-06-11 16:27:00,76.8,66.7,30.05,SSE,153,0.0,10.0,71,0.00,,SCT060,0.00,VWS V14.01,2013-06-11 21:27:00,
2013-06-11 16:32:00,76.5,66.0,30.05,SSW,205,0.0,10.0,70,0.00,,,0.00,VWS V14.01,2013-06-11 21:32:00,
2013-06-11 16:37:00,76.5,65.6,30.03,South,184,0.0,0.0,69,0.00,,,0.00,VWS V14.01,2013-06-11 21:37:00,
2013-06-11 16:42:00,76.5,66.0,30.03,SSW,201,2.0,3.0,70,0.00,,,0.00,VWS V14.01,2013-06-11 21:42:00,
2013-06-11 16:47:00,76.5,65.6,30.03,SSW,195,1.0,7.0,69,0.00,,,0.00,VWS V14.01,2013-06-11 21:47:00,
2013-06-11 16:52:00,76.3,65.8,30.02,SSW,195,0.0,7.0,70,0.00,,,0.00,VWS V14.01,2013-06-11 21:52:00,
2013-06-11 16:57:00,76.3,65.8,30.02,SSW,195,0.0,0.0,70,0.00,,SCT023,0.00,VWS V14.01,2013-06-11 21:57:00,
2013-06-11 17:02:00,76.1,65.6,30.02,South,190,0.0,3.0,70,0.00,,SCT023,0.00,VWS V14.01,2013-06-11 22:02:00,
2013-06-11 17:07:00,76.3,65.4,30.02,South,179,0.0,0.0,69,0.00,,SCT023,0.00,VWS V14.01,2013-06-11 22:07:00,
2013-06-11 17:12:00,76.5,66.0,30.02,South,178,0.0,0.0,70,0.00,,SCT023,0.00,VWS V14.01,2013-06-11 22:12:00,
2013-06-11 17:17:00,76.5,66.0,30.02,SSE,153,0.0,0.0,70,0.00,,SCT023,0.00,VWS V14.01,2013-06-11 22:17:00,
2013-06-11 17:22:00,76.1,66.8,30.02,East,100,0.0,5.0,73,0.00,,SCT023,0.00,VWS V14.01,2013-06-11 22:22:00,
2013-06-11 17:27:00,75.8,66.9,30.02,SSE,153,0.0,0.0,74,0.00,,SCT023,0.00,VWS V14.01,2013-06-11 22:27:00,
2013-06-11 17:32:00,75.8,67.7,30.02,ESE,109,0.0,0.0,76,0.00,,SCT023,0.00,VWS V14.01,2013-06-11 22:32:00,
2013-06-11 17:37:00,75.6,67.9,30.01,SSE,148,2.0,3.0,77,0.00,,SCT023,0.00,VWS V14.01,2013-06-11 22:37:00,
2013-06-11 17:42:00,75.6,68.6,30.01,South,171,0.0,3.0,79,0.00,,SCT023,0.00,VWS V14.01,2013-06-11 22:42:00,
2013-06-11 17:47:00,75.8,68.8,30.01,SSE,147,0.0,4.0,79,0.00,,SCT023,0.00,VWS V14.01,2013-06-11 22:47:00,
2013-06-11 17:52:00,76.1,69.5,30.00,SSE,147,0.0,4.0,80,0.00,,SCT023,0.00,VWS V14.01,2013-06-11 22:52:00,
2013-06-11 17:57:00,76.0,69.8,30.00,SSE,147,0.0,0.0,81,0.01,,-RA,0.01,VWS V14.01,2013-06-11 22:57:00,
2013-06-11 18:02:00,76.0,69.8,30.00,SSE,147,0.0,0.0,81,0.01,,-RA,0.01,VWS V14.01,2013-06-11 23:02:00,
2013-06-11 18:07:00,76.1,70.2,30.00,SSE,147,0.0,0.0,82,0.01,,-RA,0.01,VWS V14.01,2013-06-11 23:07:00,
2013-06-11 18:12:00,76.1,70.6,30.00,SSE,147,0.0,0.0,83,0.01,,-RA,0.01,VWS V14.01,2013-06-11 23:12:00,
2013-06-11 18:17:00,76.3,70.8,30.00,SSE,147,0.0,0.0,83,0.01,,-RA,0.01,VWS V14.01,2013-06-11 23:17:00,
2013-06-11 18:22:00,76.3,70.8,29.99,SSE,147,0.0,0.0,83,0.01,,-RA,0.01,VWS V14.01,2013-06-11 23:22:00,
2013-06-11 18:27:00,76.3,70.8,29.99,SSE,147,0.0,0.0,83,0.01,,-RA,0.01,VWS V14.01,2013-06-11 23:27:00,
2013-06-11 18:32:00,76.0,70.5,29.99,SSE,147,0.0,0.0,83,0.01,,-RA,0.01,VWS V14.01,2013-06-11 23:32:00,
2013-06-11 18:37:00,76.0,70.5,29.99,SSE,147,0.0,0.0,83,0.01,,-RA,0.01,VWS V14.01,2013-06-11 23:37:00,
2013-06-11 18:42:00,76.0,70.5,29.99,SSE,147,0.0,0.0,83,0.01,,-RA,0.01,VWS V14.01,2013-06-11 23:42:00,
2013-06-11 18:47:00,76.1,70.6,29.99,SSE,147,0.0,0.0,83,0.01,,-RA,0.01,VWS V14.01,2013-06-11 23:47:00,
2013-06-11 18:52:00,76.3,70.8,29.99,SSE,147,0.0,0.0,83,0.01,,-RA,0.01,VWS V14.01,2013-06-11 23:52:00,
2013-06-11 18:57:00,76.5,70.6,29.99,SSE,147,0.0,0.0,82,0.01,,CLR,0.01,VWS V14.01,2013-06-11 23:57:00,
2013-06-11 19:02:00,76.7,70.8,29.99,SSE,147,0.0,0.0,82,0.01,,CLR,0.01,VWS V14.01,2013-06-12 00:02:00,
2013-06-11 19:07:00,76.7,70.8,29.99,SSE,147,0.0,0.0,82,0.00,,CLR,0.01,VWS V14.01,2013-06-12 00:07:00,
2013-06-11 19:12:00,76.8,70.9,29.99,SSE,147,0.0,0.0,82,0.00,,CLR,0.01,VWS V14.01,2013-06-12 00:12:00,
2013-06-11 19:17:00,76.8,70.5,29.99,SSE,148,0.0,0.0,81,0.00,,CLR,0.01,VWS V14.01,2013-06-12 00:17:00,
2013-06-11 19:22:00,76.8,70.5,29.99,SSE,148,0.0,0.0,81,0.00,,CLR,0.01,VWS V14.01,2013-06-12 00:22:00,
2013-06-11 19:27:00,76.8,70.2,29.99,SSE,148,0.0,0.0,80,0.00,,CLR,0.01,VWS V14.01,2013-06-12 00:27:00,
2013-06-11 19:32:00,77.0,70.4,29.99,SSE,148,0.0,0.0,80,0.00,,CLR,0.01,VWS V14.01,2013-06-12 00:32:00,
2013-06-11 19:37:00,76.8,70.2,29.99,SSW,200,0.0,0.0,80,0.00,,CLR,0.01,VWS V14.01,2013-06-12 00:37:00,
2013-06-11 19:42:00,76.8,70.2,29.99,SW,215,0.0,3.0,80,0.00,,CLR,0.01,VWS V14.01,2013-06-12 00:42:00,
2013-06-11 19:47:00,76.7,70.1,29.99,WNW,290,0.0,0.0,80,0.00,,CLR,0.01,VWS V14.01,2013-06-12 00:47:00,
2013-06-11 19:52:00,76.5,69.5,29.99,NW,305,0.0,0.0,79,0.00,,CLR,0.01,VWS V14.01,2013-06-12 00:52:00,
2013-06-11 19:57:00,76.3,69.3,29.99,NW,305,0.0,0.0,79,0.00,,CLR,0.01,VWS V14.01,2013-06-12 00:57:00,
2013-06-11 20:02:00,76.3,68.9,29.99,NW,305,0.0,0.0,78,0.00,,CLR,0.01,VWS V14.01,2013-06-12 01:02:00,
2013-06-11 20:07:00,76.3,68.9,29.99,NW,318,0.0,3.0,78,0.00,,CLR,0.01,VWS V14.01,2013-06-12 01:07:00,
2013-06-11 20:12:00,76.5,69.1,29.99,NW,316,0.0,3.0,78,0.00,,CLR,0.01,VWS V14.01,2013-06-12 01:12:00,
2013-06-11 20:17:00,76.5,69.1,29.99,NW,316,0.0,0.0,78,0.00,,CLR,0.01,VWS V14.01,2013-06-12 01:17:00,
2013-06-11 20:22:00,76.7,68.9,30.00,NW,316,0.0,0.0,77,0.00,,CLR,0.01,VWS V14.01,2013-06-12 01:22:00,
2013-06-11 20:27:00,76.7,68.9,30.00,NW,316,0.0,0.0,77,0.00,,CLR,0.01,VWS V14.01,2013-06-12 01:27:00,
2013-06-11 20:32:00,76.7,68.9,30.00,NW,317,0.0,0.0,77,0.00,,CLR,0.01,VWS V14.01,2013-06-12 01:32:00,
2013-06-11 20:37:00,76.7,68.9,30.00,NW,317,0.0,0.0,77,0.00,,CLR,0.01,VWS V14.01,2013-06-12 01:37:00,
2013-06-11 20:42:00,76.7,68.9,30.00,NW,317,0.0,0.0,77,0.00,,CLR,0.01,VWS V14.01,2013-06-12 01:42:00,
2013-06-11 20:47:00,76.7,69.3,30.00,NW,317,0.0,0.0,78,0.00,,CLR,0.01,VWS V14.01,2013-06-12 01:47:00,
2013-06-11 20:52:00,76.7,69.3,30.00,NW,317,0.0,0.0,78,0.00,,CLR,0.01,VWS V14.01,2013-06-12 01:52:00,
2013-06-11 20:57:00,76.7,69.3,30.00,NW,317,0.0,0.0,78,0.00,,CLR,0.01,VWS V14.01,2013-06-12 01:57:00,
2013-06-11 21:02:00,76.7,69.3,30.00,NW,317,0.0,0.0,78,0.00,,CLR,0.01,VWS V14.01,2013-06-12 02:02:00,
2013-06-11 21:07:00,76.7,69.3,30.00,NW,317,0.0,0.0,78,0.00,,CLR,0.01,VWS V14.01,2013-06-12 02:07:00,
2013-06-11 21:12:00,76.7,69.3,30.00,NW,317,0.0,0.0,78,0.00,,CLR,0.01,VWS V14.01,2013-06-12 02:12:00,
2013-06-11 21:17:00,76.7,69.7,30.00,NW,317,0.0,0.0,79,0.00,,CLR,0.01,VWS V14.01,2013-06-12 02:17:00,
2013-06-11 21:22:00,76.7,69.7,30.00,NW,317,0.0,0.0,79,0.00,,CLR,0.01,VWS V14.01,2013-06-12 02:22:00,
2013-06-11 21:27:00,76.5,69.5,30.00,NW,317,0.0,0.0,79,0.00,,CLR,0.01,VWS V14.01,2013-06-12 02:27:00,
2013-06-11 21:32:00,76.5,69.9,30.00,NW,317,0.0,0.0,80,0.00,,CLR,0.01,VWS V14.01,2013-06-12 02:32:00,
2013-06-11 21:37:00,76.3,69.7,30.00,NW,317,0.0,0.0,80,0.00,,CLR,0.01,VWS V14.01,2013-06-12 02:37:00,
2013-06-11 21:42:00,76.1,69.8,30.00,NW,317,0.0,0.0,81,0.00,,CLR,0.01,VWS V14.01,2013-06-12 02:42:00,
2013-06-11 21:47:00,76.1,69.8,30.00,NW,317,0.0,0.0,81,0.00,,CLR,0.01,VWS V14.01,2013-06-12 02:47:00,
2013-06-11 21:53:00,76.0,69.8,30.00,NW,317,0.0,0.0,81,0.00,,CLR,0.01,VWS V14.01,2013-06-12 02:53:00,
2013-06-11 21:58:00,76.0,69.8,30.00,NW,317,0.0,0.0,81,0.00,,CLR,0.01,VWS V14.01,2013-06-12 02:58:00,
2013-06-11 22:03:00,75.8,69.6,30.00,NW,317,0.0,0.0,81,0.00,,CLR,0.01,VWS V14.01,2013-06-12 03:03:00,
2013-06-11 22:08:00,75.8,69.6,30.01,NW,317,0.0,0.0,81,0.00,,CLR,0.01,VWS V14.01,2013-06-12 03:08:00,
2013-06-11 22:12:00,75.6,69.7,30.01,NW,317,0.0,0.0,82,0.00,,CLR,0.01,VWS V14.01,2013-06-12 03:12:00,
2013-06-11 22:17:00,75.4,69.5,30.01,NW,317,0.0,0.0,82,0.00,,CLR,0.01,VWS V14.01,2013-06-12 03:17:00,
2013-06-11 22:22:00,75.4,69.5,30.01,NW,317,0.0,0.0,82,0.00,,CLR,0.01,VWS V14.01,2013-06-12 03:22:00,
2013-06-11 22:27:00,75.4,69.5,30.01,NW,317,0.0,0.0,82,0.00,,CLR,0.01,VWS V14.01,2013-06-12 03:27:00,
2013-06-11 22:32:00,75.4,69.5,30.01,NW,317,0.0,0.0,82,0.00,,CLR,0.01,VWS V14.01,2013-06-12 03:32:00,
2013-06-11 22:37:00,75.4,69.5,30.02,NW,317,0.0,0.0,82,0.00,,CLR,0.01,VWS V14.01,2013-06-12 03:37:00,
2013-06-11 22:42:00,75.3,69.4,30.02,NW,317,0.0,0.0,82,0.00,,CLR,0.01,VWS V14.01,2013-06-12 03:42:00,
2013-06-11 22:47:00,75.3,69.8,30.02,NW,317,0.0,0.0,83,0.00,,CLR,0.01,VWS V14.01,2013-06-12 03:47:00,
2013-06-11 22:52:00,75.3,69.8,30.02,NW,317,0.0,0.0,83,0.00,,CLR,0.01,VWS V14.01,2013-06-12 03:52:00,
2013-06-11 22:57:00,75.3,69.8,30.02,NW,317,0.0,0.0,83,0.00,,CLR,0.01,VWS V14.01,2013-06-12 03:57:00,
2013-06-11 23:01:00,75.3,69.8,30.02,NW,317,0.0,0.0,83,0.00,,CLR,0.01,VWS V14.01,2013-06-12 04:01:00,
2013-06-11 23:06:00,75.3,70.1,30.03,NW,317,0.0,0.0,84,0.00,,CLR,0.01,VWS V14.01,2013-06-12 04:06:00,
2013-06-11 23:11:00,75.3,70.1,30.03,NW,317,0.0,0.0,84,0.00,,CLR,0.01,VWS V14.01,2013-06-12 04:11:00,
2013-06-11 23:16:00,75.1,69.9,30.03,NW,317,0.0,0.0,84,0.00,,CLR,0.01,VWS V14.01,2013-06-12 04:16:00,
2013-06-11 23:21:00,75.1,70.3,30.03,NW,317,0.0,0.0,85,0.00,,CLR,0.01,VWS V14.01,2013-06-12 04:21:00,
2013-06-11 23:26:00,75.1,70.3,30.03,NW,317,0.0,0.0,85,0.00,,CLR,0.01,VWS V14.01,2013-06-12 04:26:00,
2013-06-11 23:31:00,74.9,70.1,30.03,NW,317,0.0,0.0,85,0.00,,CLR,0.01,VWS V14.01,2013-06-12 04:31:00,
2013-06-11 23:36:00,74.9,70.1,30.03,NW,317,0.0,0.0,85,0.00,,CLR,0.01,VWS V14.01,2013-06-12 04:36:00,
2013-06-11 23:41:00,74.9,70.1,30.03,NW,317,0.0,0.0,85,0.00,,CLR,0.01,VWS V14.01,2013-06-12 04:41:00,
2013-06-11 23:46:00,74.9,70.4,30.03,NW,317,0.0,0.0,86,0.00,,CLR,0.01,VWS V14.01,2013-06-12 04:46:00,
2013-06-11 23:51:00,74.9,70.4,30.03,NW,317,0.0,0.0,86,0.00,,CLR,0.01,VWS V14.01,2013-06-12 04:51:00,
2013-06-11 23:56:00,74.7,70.2,30.03,NW,317,0.0,0.0,86,0.00,,CLR,0.01,VWS V14.01,2013-06-12 04:56:00,